Latest Weather Observations for Goulburn Airport

IDN60901

Issued at 1:11 pm EDT Friday 27 March 2015 (issued every 10 minutes, with the page automatically refreshed every 10 minutes)

About weather observations | Map of Canberra area stations | Latest observations for Canberra area | Other Formats
Station Details ID: 070330 Name: GOULBURN AIRPORT AWS Lat: -34.81 Lon: 149.73 Height: 640.0 m
Data from the previous 72 hours. | See also: Recent months at Goulburn Airport
Date/Time
EDT
Tmp

°C
App
Tmp
°C
Dew
Point
°C
Rel
Hum
%
Delta-T

°C
Wind Press
QNH
hPa
Press
MSL
hPa
Rain
since
9 am
mm
Dir
 
Spd
km/h
Gust
km/h
Spd
kts
Gust
kts
27/01:00pm 16.6 8.0 4.6 45 5.8 W 39 57 21 31 1021.3 1019.4 0.0
27/12:36pm 15.6 7.6 4.0 46 5.5 W 35 54 19 29 1021.6 1019.6 0.0
27/12:30pm 16.0 7.8 5.0 48 5.4 W 37 48 20 26 1021.8 1019.8 0.0
27/12:00pm 15.3 7.5 4.7 49 5.1 W 35 50 19 27 1021.7 1019.7 0.0
27/11:30am 13.9 6.4 4.2 52 4.6 W 33 44 18 24 1022.0 1020.0 0.0
27/11:00am 13.6 7.2 5.0 56 4.1 W 28 39 15 21 1022.5 1020.6 0.0
27/10:30am 12.8 6.3 4.5 57 3.9 W 28 39 15 21 1022.6 1020.7 0.0
27/10:00am 11.6 4.0 3.9 59 3.6 W 33 44 18 24 1022.5 1020.6 0.0
27/09:30am 10.5 3.8 3.5 62 3.2 WNW 28 35 15 19 1022.4 1020.5 0.0
27/08:30am 8.8 2.3 2.6 65 2.7 WNW 26 33 14 18 1022.3 1020.4 0.0
27/08:00am 7.6 1.8 2.1 68 2.4 WNW 22 28 12 15 1022.0 1020.0 0.0
27/07:30am 6.5 0.9 1.4 70 2.1 WNW 20 26 11 14 1021.7 1019.7 0.0
27/07:00am 6.2 0.5 0.7 68 2.2 WNW 20 26 11 14 1021.3 1019.4 0.0
27/06:30am 6.6 0.9 0.7 66 2.4 WNW 20 24 11 13 1021.1 1019.2 0.0
27/05:30am 5.4 0.6 0.2 69 2.1 WNW 15 17 8 9 1020.8 1018.9 0.0
27/05:00am 6.2 1.8 0.1 65 2.5 W 13 19 7 10 1020.7 1018.8 0.0
27/04:30am 7.2 2.7 0.0 60 2.9 W 13 17 7 9 1020.9 1019.0 0.0
27/04:00am 7.3 2.8 -0.2 59 3.0 W 13 17 7 9 1020.9 1019.0 0.0
27/03:30am 7.4 3.6 -0.5 57 3.2 WSW 9 13 5 7 1021.1 1019.2 0.0
27/03:00am 7.6 3.5 -0.4 57 3.2 W 11 15 6 8 1021.0 1019.1 0.0
27/02:30am 7.5 3.3 -0.7 56 3.3 WNW 11 17 6 9 1021.2 1019.3 0.0
27/02:00am 7.7 3.1 -0.8 55 3.4 W 13 19 7 10 1021.2 1019.3 0.0
27/01:30am 7.4 2.8 -0.8 56 3.3 W 13 17 7 9 1021.4 1019.5 0.0
27/01:00am 7.6 3.1 -0.6 56 3.3 W 13 19 7 10 1021.7 1019.7 0.0
27/12:30am 7.8 2.5 -0.9 54 3.5 W 17 22 9 12 1021.7 1019.7 0.0
 
Date/Time
EDT
Tmp

°C
App
Tmp
°C
Dew
Point
°C
Rel
Hum
%
Delta-T

°C
Wind Press
QNH
hPa
Press
MSL
hPa
Rain
since
9 am
mm
Dir
 
Spd
km/h
Gust
km/h
Spd
kts
Gust
kts
26/11:30pm 7.5 3.7 -0.5 57 3.2 W 9 13 5 7 1021.7 1019.7 0.0
26/11:00pm 7.2 3.0 -0.7 57 3.1 WNW 11 13 6 7 1021.7 1019.7 0.0
26/10:30pm 8.3 4.1 -1.0 52 3.7 WNW 11 13 6 7 1021.8 1019.8 0.0
26/10:00pm 8.1 6.0 -0.6 54 3.5 CALM 0 0 0 0 1021.8 1019.8 0.0
26/09:30pm 9.2 5.4 -0.9 49 4.1 W 9 15 5 8 1021.7 1019.7 0.0
26/09:00pm 9.8 6.0 -1.0 47 4.4 WSW 9 13 5 7 1021.4 1019.5 0.0
26/08:30pm 10.3 5.3 -1.1 45 4.7 W 15 20 8 11 1020.9 1019.0 0.0
26/08:00pm 11.2 5.2 -1.5 41 5.2 W 20 28 11 15 1020.6 1018.6 0.0
26/07:30pm 11.9 6.1 -1.6 39 5.5 WSW 19 30 10 16 1020.2 1018.2 0.0
26/07:00pm 13.2 6.8 -1.9 35 6.2 W 22 37 12 20 1019.6 1017.7 0.0
26/06:30pm 14.8 6.9 -1.3 33 6.9 W 30 44 16 24 1019.3 1017.4 0.0
26/05:40pm 16.7 8.4 2.3 38 6.7 W 35 54 19 29 1018.8 1016.8 0.0
26/05:30pm 16.8 7.9 2.8 39 6.6 WNW 39 56 21 30 1018.5 1016.5 0.0
26/05:21pm 17.1 8.6 3.1 39 6.7 WNW 37 56 20 30 1018.4 1016.4 0.0
26/05:00pm 17.6 8.0 3.5 39 6.8 WNW 43 56 23 30 1017.9 1016.0 0.0
26/04:30pm 17.9 8.6 3.0 37 7.1 W 41 57 22 31 1017.8 1015.8 0.0
26/04:00pm 19.0 9.4 3.6 36 7.5 W 43 61 23 33 1017.6 1015.6 0.0
26/03:36pm 19.0 9.6 2.4 33 7.9 W 41 65 22 35 1017.4 1015.4 0.0
26/03:30pm 18.9 9.6 3.1 35 7.6 WNW 41 57 22 31 1017.5 1015.5 0.0
26/03:23pm 19.1 10.1 2.5 33 7.9 WNW 39 50 21 27 1017.4 1015.4 0.0
26/03:13pm 19.0 9.4 3.2 35 7.6 W 43 61 23 33 1017.6 1015.6 0.0
26/03:00pm 19.4 9.8 3.6 35 7.7 WNW 43 59 23 32 1017.5 1015.5 0.0
26/02:56pm 19.3 10.1 3.5 35 7.7 WNW 41 59 22 32 1017.5 1015.5 0.0
26/02:30pm 19.0 9.7 2.8 34 7.8 W 41 56 22 30 1017.7 1015.7 0.0
26/02:00pm 18.3 9.2 3.8 38 7.0 WNW 41 52 22 28 1017.9 1016.0 0.0
26/01:30pm 18.3 10.2 3.4 37 7.2 WNW 35 54 19 29 1018.4 1016.4 0.0
26/01:26pm 18.6 10.9 3.6 37 7.3 WNW 33 54 18 29 1018.3 1016.3 0.0
26/01:08pm 18.0 9.6 3.5 38 7.0 WNW 37 57 20 31 1018.5 1016.5 0.0
26/01:04pm 17.8 9.7 3.3 38 7.0 W 35 57 19 31 1018.5 1016.5 0.0
26/01:00pm 18.8 10.6 4.9 40 6.9 W 37 52 20 28 1018.7 1016.7 0.0
26/12:30pm 17.2 9.6 3.8 41 6.5 WNW 33 46 18 25 1019.0 1017.0 0.0
26/12:16pm 17.0 9.2 3.0 39 6.6 WNW 33 52 18 28 1019.2 1017.2 0.0
26/12:00pm 16.8 9.0 3.1 40 6.5 W 33 44 18 24 1019.3 1017.4 0.0
26/11:37am 16.4 9.2 2.8 40 6.4 WNW 30 52 16 28 1019.3 1017.4 0.0
26/11:30am 16.4 9.7 3.8 43 6.0 WNW 28 41 15 22 1019.2 1017.2 0.0
26/11:09am 15.6 8.8 3.1 43 5.9 WNW 28 46 15 25 1019.3 1017.4 0.0
26/11:00am 15.2 8.2 4.0 47 5.3 WNW 30 39 16 21 1019.3 1017.4 0.0
26/10:30am 15.1 7.5 3.0 44 5.7 W 32 43 17 23 1019.4 1017.5 0.0
26/10:00am 14.2 7.5 3.7 49 4.9 WNW 28 37 15 20 1019.4 1017.5 0.0
26/09:30am 13.2 8.2 4.4 55 4.2 WNW 20 30 11 16 1019.2 1017.2 0.0
26/09:00am 11.8 7.6 5.9 67 2.9 WNW 17 24 9 13 1019.2 1017.2 0.0
26/08:30am 10.9 7.1 5.7 70 2.5 NW 15 22 8 12 1019.0 1017.0 0.0
26/08:00am 9.3 6.8 6.6 83 1.3 NW 9 13 5 7 1018.8 1016.8 0.0
26/07:30am 7.7 3.8 5.2 84 1.2 NW 15 17 8 9 1018.7 1016.7 0.0
26/07:00am 7.7 3.3 4.8 82 1.3 NW 17 19 9 10 1018.6 1016.6 0.0
26/06:30am 7.8 3.5 5.1 83 1.2 NW 17 17 9 9 1018.5 1016.5 0.0
26/06:00am 7.6 3.6 5.1 84 1.1 NW 15 17 8 9 1018.3 1016.3 0.0
26/05:30am 8.0 4.2 5.8 86 1.0 NNW 15 15 8 8 1018.1 1016.2 0.0
26/05:00am 8.1 4.7 5.7 85 1.1 NNW 13 15 7 8 1017.8 1015.8 0.0
26/04:30am 8.4 5.0 5.9 84 1.2 NW 13 15 7 8 1017.8 1015.8 0.0
26/04:00am 8.8 5.6 6.8 87 1.0 NNW 13 15 7 8 1017.8 1015.8 0.0
26/03:30am 9.5 6.5 7.9 90 0.8 NW 13 15 7 8 1017.8 1015.8 0.0
26/03:00am 10.1 7.5 9.2 94 0.5 NNW 13 19 7 10 1017.8 1015.8 0.0
26/02:30am 10.6 8.1 9.7 94 0.5 NW 13 15 7 8 1018.1 1016.2 0.0
26/02:00am 10.1 7.5 9.2 94 0.5 N 13 17 7 9 1018.0 1016.1 0.0
26/01:30am 10.7 9.4 9.9 95 0.4 N 7 13 4 7 1018.3 1016.3 0.0
26/01:00am 10.8 9.4 9.6 92 0.6 N 7 9 4 5 1018.5 1016.5 0.0
26/12:30am 11.4 10.0 9.5 88 1.0 NW 7 9 4 5 1018.5 1016.5 0.0
26/12:00am 12.8 11.1 11.2 90 0.9 N 11 15 6 8 1018.4 1016.4 0.0
 
Date/Time
EDT
Tmp

°C
App
Tmp
°C
Dew
Point
°C
Rel
Hum
%
Delta-T

°C
Wind Press
QNH
hPa
Press
MSL
hPa
Rain
since
9 am
mm
Dir
 
Spd
km/h
Gust
km/h
Spd
kts
Gust
kts
25/11:30pm 12.6 11.7 11.2 91 0.8 NW 7 9 4 5 1018.6 1016.6 0.0
25/11:00pm 12.5 11.4 10.7 89 1.0 NE 7 11 4 6 1018.7 1016.7 0.0
25/10:30pm 12.7 10.9 10.8 88 1.0 NE 11 13 6 7 1018.8 1016.8 0.0
25/10:00pm 13.0 10.9 11.1 88 1.0 ENE 13 19 7 10 1019.0 1017.0 0.0
25/09:30pm 13.1 11.3 11.0 87 1.1 ENE 11 15 6 8 1019.1 1017.1 0.0
25/09:10pm 13.2 10.6 10.7 85 1.4 ENE 15 19 8 10 1018.8 1016.8 0.0
25/09:00pm 13.4 10.9 10.9 85 1.4 ENE 15 20 8 11 1018.7 1016.7 0.0
25/08:30pm 13.8 10.8 10.6 81 1.7 ENE 17 24 9 13 1018.5 1016.5 0.0
25/08:00pm 13.9 11.6 10.3 79 1.9 ENE 13 20 7 11 1018.1 1016.2 0.0
25/07:54pm 14.0 11.6 10.2 78 2.0 ENE 13 22 7 12 1018.1 1016.2 0.0
25/07:30pm 14.3 11.6 10.3 77 2.2 ENE 15 19 8 10 1017.9 1016.0 0.0
25/07:00pm 15.4 12.3 10.4 72 2.7 ENE 17 26 9 14 1017.3 1015.3 0.0
25/06:30pm 16.7 13.0 10.1 65 3.6 ENE 20 28 11 15 1017.2 1015.2 0.0
25/06:00pm 18.0 14.3 10.1 60 4.3 E 20 28 11 15 1016.9 1014.9 0.0
25/05:30pm 18.7 14.9 9.8 56 4.9 ENE 20 30 11 16 1016.6 1014.6 0.0
25/05:00pm 18.9 15.6 9.4 54 5.2 ENE 17 26 9 14 1016.7 1014.7 0.0
25/04:30pm 19.4 15.9 8.7 50 5.8 E 17 24 9 13 1016.7 1014.7 0.0
25/04:00pm 20.1 18.0 8.1 46 6.4 N 9 17 5 9 1016.9 1014.9 0.0
25/03:30pm 20.4 17.5 8.1 45 6.6 ENE 13 20 7 11 1017.0 1015.0 0.0
25/03:00pm 20.2 17.2 7.9 45 6.6 E 13 22 7 12 1017.1 1015.1 0.0
25/02:30pm 19.4 16.4 7.8 47 6.1 ENE 13 22 7 12 1017.5 1015.5 0.0
25/02:00pm 19.3 17.1 9.2 52 5.5 NNE 11 19 6 10 1017.6 1015.6 0.0
25/01:30pm 17.4 14.4 7.5 52 5.2 NE 13 22 7 12 1018.4 1016.4 0.0
25/01:00pm 18.3 15.6 9.1 55 5.0 ENE 13 26 7 14 1018.4 1016.4 0.0
25/12:30pm 18.5 15.8 10.3 59 4.5 ENE 15 20 8 11 1018.7 1016.7 0.0
25/12:00pm 17.7 15.9 9.6 59 4.4 ENE 9 17 5 9 1018.9 1016.9 0.0
25/11:30am 16.8 13.6 8.5 58 4.4 E 15 22 8 12 1018.6 1016.6 0.0
25/11:00am 15.6 11.6 8.1 61 3.9 E 19 28 10 15 1018.6 1016.6 0.0
25/10:30am 16.0 12.5 8.7 62 3.9 SSE 17 24 9 13 1018.4 1016.4 0.0
25/10:00am 15.4 11.4 8.4 63 3.7 ESE 19 24 10 13 1018.6 1016.6 0.0
25/09:30am 14.6 11.8 8.5 67 3.2 SE 13 22 7 12 1018.9 1016.9 0.0
25/09:00am 13.7 11.6 8.3 70 2.8 SSE 9 11 5 6 1018.9 1016.9 9.8
25/08:30am 13.4 12.3 8.5 72 2.5 SE 4 7 2 4 1019.0 1017.0 9.8
25/08:00am 12.0 10.8 9.7 86 1.2 E 6 7 3 4 1018.7 1016.7 9.8
25/07:30am 11.4 11.4 9.8 90 0.8 CALM 0 0 0 0 1018.0 1016.1 9.8
25/07:00am 11.2 10.1 9.9 92 0.7 S 6 7 3 4 1017.4 1015.4 9.8
25/06:30am 11.0 11.1 10.1 94 0.5 CALM 0 0 0 0 1017.0 1015.0 9.8
25/06:00am 10.5 10.4 9.6 94 0.5 CALM 0 0 0 0 1017.0 1015.0 9.8
25/05:30am 10.2 10.1 9.4 95 0.4 CALM 0 0 0 0 1016.8 1014.8 9.8
25/05:00am 9.4 9.0 8.3 93 0.6 CALM 0 0 0 0 1016.6 1014.6 9.8
25/04:51am 9.2 8.7 8.0 92 0.6 CALM 0 0 0 0 1016.3 1014.3 9.8
25/04:31am 9.6 8.7 7.9 89 0.8 WSW 2 6 1 3 1016.0 1014.0 9.8
25/04:30am 9.7 8.9 8.0 89 0.8 WSW 2 7 1 4 1016.0 1014.0 9.8
25/04:00am 10.5 10.1 8.3 86 1.1 CALM 0 0 0 0 1016.0 1014.0 9.8
25/03:44am 10.9 10.6 8.8 87 1.1 CALM 0 0 0 0 1016.0 1014.0 9.8
25/03:30am 11.6 10.9 9.9 89 0.9 NW 4 7 2 4 1016.0 1014.0 9.8
25/03:00am 11.3 10.0 9.2 87 1.1 NW 6 9 3 5 1016.1 1014.1 9.8
25/02:42am 11.4 11.3 9.5 88 1.0 CALM 0 0 0 0 1016.2 1014.2 9.8
25/02:30am 11.3 11.1 9.2 87 1.1 CALM 0 2 0 1 1016.2 1014.2 9.8
25/02:00am 11.2 10.8 9.6 90 0.8 ESE 2 6 1 3 1016.2 1014.2 9.8
25/01:51am 11.0 10.5 9.3 89 0.9 ESE 2 6 1 3 1016.3 1014.3 9.8
25/01:30am 10.8 9.9 9.1 89 0.9 E 4 7 2 4 1016.2 1014.2 9.8
25/01:00am 10.7 10.4 8.6 87 1.1 CALM 0 0 0 0 1016.1 1014.1 9.8
25/12:30am 10.5 10.2 8.6 88 1.0 CALM 0 0 0 0 1016.2 1014.2 9.8
25/12:00am 10.2 8.6 7.8 85 1.2 SSW 6 9 3 5 1016.0 1014.0 9.8
 
Date/Time
EDT
Tmp

°C
App
Tmp
°C
Dew
Point
°C
Rel
Hum
%
Delta-T

°C
Wind Press
QNH
hPa
Press
MSL
hPa
Rain
since
9 am
mm
Dir
 
Spd
km/h
Gust
km/h
Spd
kts
Gust
kts
24/11:30pm 10.2 8.0 7.8 85 1.2 SE 9 9 5 5 1015.9 1013.9 9.8
24/11:00pm 11.1 8.5 7.8 80 1.7 SW 11 19 6 10 1015.8 1013.8 9.8
24/10:30pm 10.2 7.4 6.9 80 1.6 W 11 15 6 8 1015.6 1013.6 9.8
24/10:00pm 11.0 8.6 7.1 77 1.9 ENE 9 11 5 6 1015.4 1013.4 9.8
24/09:30pm 12.4 8.2 7.3 71 2.6 WNW 19 22 10 12 1015.2 1013.2 9.8
24/09:00pm 12.9 8.1 7.4 69 2.8 WNW 22 26 12 14 1014.7 1012.7 9.8
24/08:30pm 12.0 8.0 6.7 70 2.6 WNW 17 20 9 11 1014.5 1012.5 9.8
24/08:00pm 13.9 10.5 7.7 66 3.2 NW 15 20 8 11 1013.8 1011.8 9.8
24/07:30pm 15.2 10.9 7.7 61 3.9 WNW 20 30 11 16 1013.5 1011.4 9.8
24/07:00pm 17.0 12.5 10.1 64 3.8 W 24 32 13 17 1013.0 1011.0 9.8
24/06:30pm 18.7 14.6 11.3 62 4.2 W 24 37 13 20 1012.2 1010.1 9.8
24/06:00pm 20.0 16.6 11.2 57 5.0 W 20 28 11 15 1012.0 1009.9 9.8
24/05:30pm 20.3 17.9 12.8 62 4.4 WNW 17 24 9 13 1011.8 1009.7 9.8
24/05:00pm 19.8 16.9 13.0 65 4.0 WNW 20 28 11 15 1011.9 1009.8 9.8
24/04:30pm 20.6 18.0 13.8 65 4.0 WNW 20 30 11 16 1011.9 1009.8 9.8
24/04:00pm 19.8 17.3 14.2 70 3.3 W 20 28 11 15 1012.0 1009.9 9.8
24/03:30pm 20.1 18.0 14.7 71 3.2 WNW 19 26 10 14 1012.2 1010.1 9.8
24/03:04pm 19.9 17.7 14.9 73 3.0 W 20 30 11 16 1012.4 1010.4 9.8
24/03:00pm 19.5 17.1 15.4 77 2.5 W 22 32 12 17 1012.4 1010.4 9.8
24/02:40pm 18.8 17.5 15.7 82 1.9 W 17 20 9 11 1012.6 1010.6 9.8
24/02:30pm 19.2 17.7 16.2 83 1.8 W 19 22 10 12 1012.6 1010.6 9.8
24/02:00pm 18.7 16.9 16.1 85 1.6 W 20 28 11 15 1012.8 1010.8 9.8
24/01:30pm 18.0 17.1 16.9 93 0.7 W 17 24 9 13 1013.0 1011.0 9.4

Latest Capital City Observations: Canberra | Sydney | Melbourne | Brisbane | Adelaide | Perth | Hobart | Darwin

Other Formats:

Comma delimited format used in spreadsheet applications
http://www.bom.gov.au/fwo/IDN60903/IDN60903.95716.axf

JavaScript Object Notation format (JSON) in row-major order
http://www.bom.gov.au/fwo/IDN60903/IDN60903.95716.json